カタリナ彗星

C/2022 L1 ( Catalina )

English version
Home page
Updated on March 27, 2023

---------------------------------------------------------------------

・ プロフィール

発見日 2022年6月4日
発見光度 19.3等
発見者 Catalina Sky Survey

・ 写真集

・ 軌道要素

Epoch 2023 Feb. 25.0 TT = JDT 2460000.5
T 2022 Sept. 28.24505 TT                                Rudenko
q   1.5915365            (2000.0)            P               Q
z  +0.0017697      Peri.   59.85264     -0.16155383     -0.67252690
 +/-0.0000016      Node   300.02793     -0.90482670     +0.39308137
e   0.9971835      Incl.  123.46865     +0.39394036     +0.62705231
>From 413 observations 2022 May 31-2023 Jan. 19, mean residual 0".6.

・ 星図

・ 光度変化

        m1 = 10.5 + 5 logΔ + 20.0 log r

---------------------------------------------------------------------

軌道要素はM.P.E.C. 2023-B57に掲載されたものです。
星図はステラナビゲータ Ver.10 (アストロアーツ) で作成したものです。
光度グラフはComet for Windowsで作成したものです。

---------------------------------------------------------------------

Copyright(C) Seiichi Yoshida (comet@aerith.net). All rights reserved.